Bismarck, ND

9:01 PM CDT on August 23, 2016 (GMT -0500)
Bismarck Municipal

Weather History for KBIS - April, 2013

Change the Weather History Date:

Tuesday, April 9, 2013

  Actual Average Record
Temperature  
Mean Temperature 22 °F 41 °F  
Max Temperature 30 °F 54 °F 87 °F (1977)
Min Temperature 13 °F 28 °F 1 °F (1997)
Degree Days  
Heating Degree Days 43 24  
Month to date heating degree days 285 232  
Since 1 July heating degree days 7901 7751  
Cooling Degree Days 0 0  
Month to date cooling degree days 0 0  
Year to date cooling degree days 0 0  
Moisture  
Dew Point 11 °F    
Average Humidity 63    
Maximum Humidity 76    
Minimum Humidity 50    
Precipitation  
Precipitation 0.00 in 0.03 in 0.86 in (1949)
Month to date precipitation 0.17 0.32  
Year to date precipitation 1.59 2.13  
Snow  
Snow 0.00 in 0.20 in 6.00 in (1933)
Month to date snowfall 2.5 1.9  
Since 1 July snowfall 38.0 48.5  
Snow Depth 1.00 in    
Sea Level Pressure  
Sea Level Pressure 30.46 in    
Wind  
Wind Speed 13 mph (North)    
Max Wind Speed 21 mph    
Max Gust Speed 25 mph    
Visibility 10 miles    
Events      
T = Trace of Precipitation, MM = Missing Value Source: NWS Daily Summary

Daily Weather History Graph

Daily Weather History Graph

Search for Another Location

Airport or City:

Trip Planner

Search our weather history database for the weather conditions in past years. The results will help you decide how hot, cold, wet, or windy it might be!

Date:

Astronomy

Apr. 09, 2013 Rise Set
Actual Time 7:06 AM CDT 8:23 PM CDT
Civil Twilight 6:35 AM CDT 8:54 PM CDT
Nautical Twilight 5:57 AM CDT 9:32 PM CDT
Astronomical Twilight 5:17 AM CDT 10:13 PM CDT
Moon 6:31 AM CDT (4/9) 8:01 PM CDT (4/9)
Length of Visible Light 14h 19m
Length of Day
13h 17m
Waning Crescent, 1% of the Moon is Illuminated
Apr 9
Waning Crescent
Apr 10
New
Apr 18
First Quarter
Apr 25
Full
May 2
Last Quarter

Hourly Weather History & Observations

Time (CDT) Temp. Windchill Dew Point Humidity Pressure Visibility Wind Dir Wind Speed Gust Speed Precip Events Conditions
12:52 AM 15.1 °F -1.1 °F 7.0 °F 70% 30.41 in 10.0 mi North 17.3 mph - N/A   Mostly Cloudy
1:52 AM 14.0 °F 2.0 °F 6.1 °F 71% 30.44 in 10.0 mi North 9.2 mph - N/A   Clear
2:52 AM 15.1 °F 1.8 °F 6.1 °F 68% 30.44 in 10.0 mi North 11.5 mph - N/A   Clear
3:52 AM 15.1 °F 2.5 °F 7.0 °F 70% 30.43 in 10.0 mi North 10.4 mph - N/A   Clear
4:52 AM 15.1 °F 1.8 °F 8.1 °F 74% 30.43 in 10.0 mi North 11.5 mph - N/A   Partly Cloudy
5:52 AM 14.0 °F -0.8 °F 7.0 °F 74% 30.45 in 10.0 mi NNW 13.8 mph - N/A   Clear
6:52 AM 12.9 °F -1.6 °F 7.0 °F 77% 30.46 in 10.0 mi NNW 12.7 mph - N/A   Clear
7:52 AM 14.0 °F -0.8 °F 7.0 °F 74% 30.48 in 10.0 mi NNW 13.8 mph - N/A   Clear
8:52 AM 15.1 °F -1.1 °F 8.1 °F 74% 30.50 in 10.0 mi NNW 17.3 mph 20.7 mph N/A   Clear
9:52 AM 17.1 °F 3.0 °F 9.0 °F 71% 30.52 in 10.0 mi North 13.8 mph - N/A   Clear
10:52 AM 19.9 °F 7.9 °F 10.9 °F 68% 30.52 in 10.0 mi NNW 11.5 mph 21.9 mph N/A   Clear
11:52 AM 21.9 °F 7.8 °F 12.0 °F 66% 30.52 in 10.0 mi North 17.3 mph 20.7 mph N/A   Clear
12:52 PM 24.1 °F 10.6 °F 12.0 °F 60% 30.51 in 10.0 mi North 17.3 mph 25.3 mph N/A   Partly Cloudy
1:52 PM 25.0 °F 11.7 °F 14.0 °F 63% 30.49 in 10.0 mi NNE 17.3 mph - N/A   Clear
2:52 PM 27.0 °F 14.3 °F 15.1 °F 61% 30.49 in 10.0 mi North 17.3 mph - N/A   Clear
3:52 PM 28.0 °F 16.5 °F 15.1 °F 58% 30.48 in 10.0 mi North 15.0 mph 23.0 mph N/A   Partly Cloudy
4:52 PM 30.0 °F 19.5 °F 16.0 °F 56% 30.44 in 10.0 mi NNE 13.8 mph 23.0 mph N/A   Clear
5:52 PM 28.9 °F 17.7 °F 14.0 °F 54% 30.45 in 10.0 mi NNE 15.0 mph - N/A   Clear
6:52 PM 28.0 °F 16.1 °F 12.0 °F 51% 30.45 in 10.0 mi NNE 16.1 mph - N/A   Clear
7:52 PM 27.0 °F 16.1 °F 12.9 °F 56% 30.43 in 10.0 mi North 12.7 mph 21.9 mph N/A   Clear
8:52 PM 25.0 °F 16.3 °F 16.0 °F 69% 30.44 in 10.0 mi North 8.1 mph - N/A   Clear
9:52 PM 25.0 °F 15.5 °F 16.0 °F 69% 30.45 in 10.0 mi North 9.2 mph - N/A   Clear
10:52 PM 25.0 °F 18.1 °F 17.1 °F 72% 30.46 in 10.0 mi North 5.8 mph - N/A   Clear
11:52 PM 25.0 °F 17.1 °F 17.1 °F 72% 30.46 in 10.0 mi NNW 6.9 mph - N/A   Clear